This is the latest recevied weather packets stored in our database for station/object WC4PEM-12. If no packets are shown the sender has not sent any weather packets the latest 10 day(s).
| Time | Temp. | Humidity | Pressure | Rain* | Wind** | Luminosity | Snow |
|---|---|---|---|---|---|---|---|
| 1777519392 | 23.33° C | 83% | 1013.5 hPa | 0 mm | - | - | - |
| 1777519092 | 23.33° C | 83% | 1013.6 hPa | 0 mm | - | - | - |
| 1777518977 | 23.89° C | 82% | 1013.7 hPa | 0 mm | - | - | - |
| 1777518824 | 23.89° C | 82% | 1013.7 hPa | 0 mm | - | - | - |
| 1777518792 | 23.89° C | 82% | 1013.7 hPa | 0 mm | - | - | - |
| 1777518524 | 23.89° C | 82% | 1013.6 hPa | 0 mm | - | - | - |
| 1777518492 | 23.89° C | 82% | 1013.6 hPa | 0 mm | - | - | - |
| 1777518192 | 23.89° C | 82% | 1013.7 hPa | 0 mm | - | - | - |
| 1777517892 | 23.89° C | 81% | 1013.5 hPa | 0 mm | - | - | - |
| 1777517592 | 23.89° C | 81% | 1013.6 hPa | 0 mm | - | - | - |
| 1777517333 | 23.89° C | 80% | 1013.8 hPa | 0 mm | - | - | - |
| 1777517292 | 23.89° C | 80% | 1013.6 hPa | 0 mm | - | - | - |
| 1777516992 | 23.89° C | 80% | 1013.8 hPa | 0 mm | - | - | - |
| 1777516947 | 24.44° C | 78% | 1013.6 hPa | 0 mm | - | - | - |
| 1777516692 | 24.44° C | 80% | 1013.7 hPa | 0 mm | - | - | - |
| 1777516532 | 24.44° C | 79% | 1013.9 hPa | 0 mm | - | - | - |
| 1777516392 | 24.44° C | 79% | 1013.9 hPa | 0 mm | - | - | - |
| 1777516309 | 24.44° C | 78% | 1013.9 hPa | 0 mm | - | - | - |
| 1777516092 | 24.44° C | 78% | 1013.9 hPa | 0 mm | - | - | - |
| 1777515792 | 24.44° C | 78% | 1013.6 hPa | 0 mm | - | - | - |
| 1777515528 | 24.44° C | 77% | 1013.6 hPa | 0 mm | - | - | - |
| 1777515492 | 24.44° C | 77% | 1013.6 hPa | 0 mm | - | - | - |
| 1777515192 | 25° C | 76% | 1013.5 hPa | 0 mm | - | - | - |
| 1777515050 | 25.56° C | 70% | 1012.7 hPa | 0 mm | - | - | - |
| 1777514892 | 25° C | 75% | 1013.5 hPa | 0 mm | - | - | - |
* Rain latest hour (hover to see other rain measurements)
** Current wind speed in m/s (hover to see current wind gust speed)